This is the latest recevied weather packets stored in our database for station/object K3SV. If no packets are shown the sender has not sent any weather packets the latest 10 day(s).
| Time | Temp. | Humidity | Pressure | Rain* | Wind** | Luminosity | Snow |
|---|---|---|---|---|---|---|---|
| 1777845174 | 26.11° C | 51% | 1015.3 hPa | 0 mm | - | 264 W/m² | - |
| 1777844872 | 26.11° C | 52% | 1015.4 hPa | 0 mm | - | 289 W/m² | - |
| 1777844569 | 25.56° C | 54% | 1015.3 hPa | 0 mm | - | 302 W/m² | - |
| 1777844267 | 25.56° C | 54% | 1015.4 hPa | 0 mm | - | 105 W/m² | - |
| 1777843964 | 25.56° C | 52% | 1015.3 hPa | 0 mm | - | 72 W/m² | - |
| 1777843660 | 25.56° C | 52% | 1015.3 hPa | 0 mm | - | 95 W/m² | - |
| 1777843358 | 26.11° C | 51% | 1015.4 hPa | 0 mm | - | 103 W/m² | - |
| 1777843056 | 26.67° C | 50% | 1015.3 hPa | 0 mm | - | 118 W/m² | - |
| 1777842752 | 27.22° C | 50% | 1015.4 hPa | 0 mm | - | 424 W/m² | - |
| 1777842447 | 26.67° C | 52% | 1015.4 hPa | 0 mm | - | 460 W/m² | - |
| 1777842145 | 26.67° C | 51% | 1015.3 hPa | 0 mm | - | 483 W/m² | - |
| 1777841840 | 26.67° C | 51% | 1015.4 hPa | 0 mm | - | 474 W/m² | - |
| 1777841536 | 26.11° C | 52% | 1015.4 hPa | 0 mm | - | 468 W/m² | - |
| 1777841233 | 26.67° C | 52% | 1015.2 hPa | 0 mm | - | 320 W/m² | - |
| 1777840931 | 26.67° C | 54% | 1015.6 hPa | 0 mm | - | 506 W/m² | - |
| 1777840628 | 25.56° C | 54% | 1015.6 hPa | 0 mm | - | 165 W/m² | - |
| 1777840326 | 26.11° C | 55% | 1015.5 hPa | 0 mm | - | 192 W/m² | - |
| 1777840023 | 26.67° C | 52% | 1015.7 hPa | 0 mm | - | 626 W/m² | - |
| 1777839720 | 26.11° C | 53% | 1015.7 hPa | 0 mm | - | 655 W/m² | - |
| 1777839417 | 25.56° C | 55% | 1015.9 hPa | 0 mm | - | 189 W/m² | - |
| 1777839115 | 26.11° C | 54% | 1016 hPa | 0 mm | - | 219 W/m² | - |
| 1777838805 | 26.11° C | 54% | 1015.9 hPa | 0 mm | - | 365 W/m² | - |
| 1777838502 | 27.78° C | 51% | 1016 hPa | 0 mm | - | 291 W/m² | - |
| 1777838199 | 27.22° C | 51% | 1016.2 hPa | 0 mm | - | 724 W/m² | - |
| 1777837896 | 26.67° C | 52% | 1016 hPa | 0 mm | - | 225 W/m² | - |
* Rain latest hour (hover to see other rain measurements)
** Current wind speed in m/s (hover to see current wind gust speed)